Weather in Bershad

Ukraine / Vinnytsia Region     48°22′22″N   29°31′31″E
temp.,
°C
wind,
m/s
gust,
m/s
humid.,
%
clouds,
%
prec.,
mm/h
press.,
hPa
HPBL,
m
1 march, mon
mon123:00+1nw4997100 0.4 1024472
02:00+1wnw2598100 1.9 1024223
05:00+1n3698100 0.6 1024267
08:00+1nne4797100 1.0 1026387
11:00+1nne4791100 0.1 1029585
14:00+2nne577799 0.2 1030777
17:00+2n467888 0.1 1031650
20:00+1nnw368194 0.1 1032352
2 march, tue
tue223:00+1nw2485100 0.1 1033130
02:00+1wnw368799 0.1 1033198
05:000w358780 0.0 1031129
08:00+1w5108552 0.0 1031372
11:00+5w697592 0.0 1028490
14:00+8w7116554 0.0 1026778
17:00+8w7136328 0.0 1023683
20:00+6nw6157114 0.0 1023682
3 march, wed
wed323:00+4nw6157944 0.0 1024723
02:00+4n7118045 0.0 1026851
05:00+3nnw51076100 0.0 1027714
08:00+2nnw598390 0.0 1029491
11:00+5nnw46650 0.0 1029920
14:00+7nnw45520 0.0 10291099
17:00+6nw34530 0.0 1028946
20:00+3wnw22652 0.0 102922
4 march, thu
thu423:00+2wsw226765 0.0 102722
02:00+1sw347156 0.0 102655
05:00+1ssw36720 0.0 1023113
08:00+2ssw49710 0.0 1021277
11:00+7ssw58650 0.0 1018453
14:00+10sw58624 0.0 1016637
17:00+9wsw37631 0.0 1013278
20:00+5wsw347112 0.0 101360
5 march, fri
fri523:00+4wsw34700 0.0 101347
02:00+4w23740 0.0 101329
05:00+3wsw237567 0.0 101226
08:00+4ssw356969 0.0 101195
11:00+10sw585449 0.0 1010521
14:00+13sw684653 0.0 1008819
17:00+11sw365491 0.0 1007157
20:00+8wnw356294 0.0 100892